カタログに戻る

OTB

運用中科学LEO
NORAD 44341·PAYLOAD·🇺🇸 United States

打ち上げ Jun 25, 2019 から Cape Canaveral Space Force Station

Loading…

次のパス (今後24時間)

TLE

最新Source: Space-Track

元期: Sep 14, 2026, 00:03 UTC

1 44341U 19036C   26257.00250545  .00000944  00000-0  15713-3 0  9995
2 44341  23.9959 137.6059 0010720 261.1919  98.7359 14.57343152384343

AllMySatでOTBをリアルタイム追跡

Download on the App Store